www.pogodaiklimat.ru

Погода и климат >> Архив погоды >> Норвегия >> Эдж


ПОГОДА на Эдже

  • Прогноз погоды на Эдже
  • Монитор погоды на Эдже

АРХИВ ПОГОДЫ на Эдже

Время (UTC), дата Ветер
(напр.,м/с)
 
Видим.   Явления Облачность Т
(С)
Тd
(С)
f
(%)
Тe
(С)
Тes
(С)
Комфортность P
(гПа)
Po
(гПа)
Тmin
(С)
Tmax
(С)
R
(мм)
R24
(мм)
S
(см)
13 18.08 В 1
{2}
н/о н/о +4.8 -0.2 70 +4 +4 1009.1 1007.6
14 18.08 В 1
{2}
н/о н/о +5.3 +0.3 70 +4 +4 1009.2 1007.7
15 18.08 СЗ 1
{2}
н/о н/о +2.3 +0.1 85 +1 +1 1009.5 1007.9
16 18.08 С 2
{2}
н/о н/о +2.0 +0.1 87 -1 -1 1009.7 1008.1
17 18.08
{2}
н/о н/о +1.8 0.0 88 1009.8 1008.3
18 18.08 В 1
{2}
н/о н/о +1.6 -0.2 88 -0 -0 1010.0 1008.5 +1.5 +5.9
19 18.08 штиль 0
{1}
н/о н/о +1.5 -0.1 89 0 0 1010.2 1008.6
20 18.08 В 2
{3}
н/о н/о +0.9 -0.2 92 -3 -3 1010.2 1008.7
21 18.08 штиль 0
{2}
н/о н/о +0.5 -0.3 94 -1 -1 1010.3 1008.8
23 18.08 ЮВ 1
{2}
н/о н/о -0.8 -1.2 97 -3 -3 1010.6 1009.1
01 19.08 ЮВ 2
{5}
н/о н/о -0.1 -1.0 94 -4 -4 1010.9 1009.4
02 19.08 В 3
{4}
н/о н/о +0.7 0.0 95 -4 -4 1011.0 1009.4
03 19.08 В 1
{3}
н/о н/о +0.7 0.0 95 -1 -1 1011.1 1009.5
04 19.08 В 3
{3}
н/о н/о +1.0 -0.1 92 -4 -4 1011.1 1009.5
05 19.08 В 3
{3}
н/о н/о +0.8 0.0 94 -4 -4 1011.1 1009.5
06 19.08 СВ 4
{5}
н/о н/о +0.8 +0.4 97 -5 -5 1011.1 1009.6
07 19.08 СВ 3
{4}
н/о н/о +0.7 +0.4 98 -4 -4 1011.4 1009.8
08 19.08 СВ 4
{5}
н/о н/о +0.6 +0.2 97 -5 -5 1011.2 1009.6
09 19.08 В 4
{5}
н/о н/о +0.6 0.0 96 -5 -5 1011.3 1009.7
10 19.08 СВ 5
{6}
н/о н/о +0.5 -0.1 96 -6 -6 1011.0 1009.4
11 19.08 СВ 4
{5}
н/о н/о +0.6 -0.1 95 -5 -5 1011.2 1009.6
12 19.08 СВ 5
{6}
н/о н/о +0.7 -0.4 92 -5 -5 1011.2 1009.6
13 19.08 СВ 5
{6}
н/о н/о +0.5 -0.5 93 -6 -6 1011.1 1009.5
14 19.08 СВ 3
{5}
н/о н/о +0.2 -0.4 96 -5 -5 1011.2 1009.6
15 19.08 СВ 4
{4}
н/о н/о +0.3 -0.1 97 -5 -5 1011.2 1009.7
16 19.08 СВ 4
{5}
н/о н/о +0.2 -0.8 93 -5 -5 1011.3 1009.7
17 19.08 СВ 5
{6}
н/о н/о -0.3 -1.2 94 -7 -7 1011.0 1009.4
18 19.08 СВ 5
{6}
н/о н/о -0.5 -1.1 96 -7 -7 1010.7 1009.2 -0.6 +0.9
19 19.08 СВ 6
{7}
н/о н/о -0.7 -1.2 96 -8 -8 1010.6 1009.1
20 19.08 СВ 5
{7}
н/о н/о -0.6 -1.2 96 -7 -7 1010.6 1009.0
21 19.08 С 6
{6}
н/о н/о -0.4 -1.1 95 -7 -7 1010.7 1009.1
22 19.08 С 6
{7}
н/о н/о -0.5 -1.1 96 -7 -7 1010.3 1008.7
23 19.08 С 7
{8}
н/о н/о -0.5 -1.1 96 -8 -8 1009.9 1008.4
00 20.08 СВ 7
{8}
н/о н/о -0.3 -1.0 95 -8 -8 1009.8 1008.2
01 20.08 СВ 7
{9}
н/о н/о -0.2 -0.7 96 -8 -8 1009.3 1007.7
02 20.08 СВ 7
{9}
н/о н/о -0.3 -0.7 97 -8 -8 1009.0 1007.4
03 20.08 СВ 7
{8}
н/о н/о -0.2 -0.6 97 -8 -8 1008.6 1007.0
04 20.08 СВ 7
{9}
н/о н/о -0.3 -0.7 97 -8 -8 1008.0 1006.5
05 20.08 СВ 7
{9}
н/о н/о -0.2 -0.6 97 -8 -8 1007.5 1005.9
06 20.08 С 7
{9}
н/о н/о -0.3 -0.7 97 -8 -8 1006.6 1005.1 -0.9 -0.2
07 20.08 С 5
{7}
н/о н/о -0.2 -0.7 96 -7 -7 1006.6 1005.1
08 20.08 С 8
{10}
н/о н/о 0.0 -0.5 96 -8 -8 1006.2 1004.6
09 20.08 С 9
{11}
н/о н/о +0.1 -0.5 96 -8 -8 1005.2 1003.7
10 20.08 С 10
{12}
н/о н/о +0.1 -0.5 96 -8 -8 1004.5 1002.9
11 20.08 С 10
{12}
н/о н/о +0.3 -0.5 94 -8 -8 1003.9 1002.3
12 20.08 С 10
{13}
н/о н/о +0.3 -0.4 95 -8 -8 1003.1 1001.6
13 20.08 С 10
{12}
н/о н/о +0.4 -0.3 95 -8 -8 1002.4 1000.8
14 20.08 С 11
{12}
н/о н/о +0.2 -0.4 96 -8 -8 1002.1 1000.5
15 20.08 С 9
{13}
н/о н/о +0.5 -0.2 95 -7 -7 1001.7 1000.1
16 20.08 С 11
{14}
н/о н/о +0.7 -0.4 92 -8 -8 1001.2 999.6
17 20.08 С 11
{14}
н/о н/о +0.7 -0.4 92 -8 -8 1000.7 999.1
18 20.08 С 10
{14}
н/о н/о +0.7 -0.3 93 -7 -7 1000.6 999.0 -0.3 +0.7
19 20.08 С 9
{13}
н/о н/о +0.7 +0.1 96 -7 -7 1000.5 999.0
20 20.08 С 9
{11}
н/о н/о +0.6 0.0 96 -7 -7 1000.1 998.5
23 20.08 С 11
{15}
н/о н/о +0.8 -0.3 92 -8 -8 999.9 998.3
00 21.08 С 12 н/о н/о +0.8 -0.3 92 -8 -8 1000.4 998.9
01 21.08 С 12
{15}
н/о н/о +0.8 -0.5 91 -8 -8 1000.4 998.9
02 21.08 С 14
{16}
н/о н/о +0.9 -0.5 90 -8 -8 1000.4 998.8
03 21.08 С 14
{17}
н/о н/о +0.9 -0.5 90 -8 -8 1001.1 999.5
04 21.08 С 15
{17}
н/о н/о +0.9 -0.7 89 -8 -8 1001.1 999.5
05 21.08 С 14
{18}
н/о н/о +0.8 -0.8 89 -8 -8 1002.1 1000.6
06 21.08 С 14
{18}
н/о н/о +0.8 -1.1 87 -8 -8 1002.6 1001.0
07 21.08 С 14
{17}
н/о н/о +0.7 -1.2 87 -8 -8 1003.3 1001.7
08 21.08 С 14
{18}
н/о н/о +0.6 -1.5 86 -9 -9 1004.5 1003.0
09 21.08 С 14
{18}
н/о н/о +0.5 -1.7 85 -9 -9 1005.1 1003.6
11 21.08 СЗ 11
{15}
н/о н/о +0.4 -2.1 83 -8 -8 1007.3 1005.7
12 21.08 С 9 н/о н/о +0.8 -2.1 81 -7 -7 1008.4 1006.8
13 21.08 С 11
{12}
н/о н/о +0.5 -2.7 79 -8 -8 1009.2 1007.7
14 21.08 С 9
{11}
н/о н/о +0.2 -2.5 82 -8 -8 1010.0 1008.4
15 21.08 С 8
{10}
н/о н/о +0.2 -2.3 83 -7 -7 1010.6 1009.0
16 21.08 С 8
{11}
н/о н/о +0.1 -2.4 83 -7 -7 1011.3 1009.7
17 21.08 С 7
{11}
н/о н/о +0.1 -2.4 83 -7 -7 1012.0 1010.5
18 21.08 С 9
{12}
н/о н/о -0.3 -2.2 87 -8 -8 1012.2 1010.6
19 21.08 С 8
{10}
н/о н/о -0.6 -2.5 87 -8 -8 1013.0 1011.5
20 21.08 С 7
{10}
н/о н/о -0.6 -2.7 86 -8 -8 1013.9 1012.3
21 21.08 С 6
{8}
н/о н/о -0.9 -2.7 88 -8 -8 1014.4 1012.8
23 21.08 С 5
{6}
н/о н/о -1.1 -2.6 90 -8 -8 1014.9 1013.3
00 22.08 н/о н/о -1.1 -2.8 88 1015.4 1013.8
01 22.08 С 2
{4}
н/о н/о -1.2 -2.9 88 -5 -5 1015.9 1014.3
03 22.08 С 1
{3}
н/о н/о -1.1 -2.8 88 -3 -3 1016.4 1014.8
04 22.08 С 3
{3}
н/о н/о -0.9 -2.8 87 -6 -6 1016.4 1014.8
05 22.08 СВ 1
{3}
н/о н/о -0.9 -2.7 88 -3 -3 1016.7 1015.1
06 22.08 СВ 2 н/о н/о -0.7 -2.4 88 -4 -4 1017.0 1015.4
07 22.08 СВ 2
{3}
н/о н/о -0.7 -2.5 88 -4 -4 1017.3 1015.7
08 22.08 СВ 1
{2}
н/о н/о -0.9 -1.9 93 -3 -3 1017.5 1015.9
09 22.08 В 2
{3}
н/о н/о -0.9 -1.5 96 -5 -5 1017.7 1016.1
10 22.08 В 3
{4}
н/о н/о -1.0 -1.5 96 -6 -6 1017.9 1016.3
11 22.08 В 3
{4}
н/о н/о -1.1 -1.5 97 -6 -6 1017.9 1016.3
12 22.08 В 4
{4}
н/о н/о -0.9 -1.3 97 -7 -7 1018.1 1016.5
13 22.08 ЮВ 5
{6}
н/о н/о -1.0 -1.5 96 -8 -8 1018.2 1016.6
15 22.08 В 4
{5}
н/о н/о -1.0 -1.6 96 -7 -7 1018.3 1016.7
16 22.08 ЮВ 4
{5}
н/о н/о -1.0 -1.5 96 -7 -7 1018.3 1016.7
17 22.08 ЮВ 5
{5}
н/о н/о -1.1 -1.5 97 -8 -8 1018.3 1016.7
18 22.08 ЮВ 4 н/о н/о -0.8 -1.0 99 -7 -7 1018.4 1016.8
20 22.08 ЮВ 3
{4}
н/о н/о -0.8 -1.0 99 -6 -6 1018.7 1017.1
21 22.08 ЮВ 2
{4}
н/о н/о -0.6 -0.8 99 -5 -5 1018.7 1017.1
22 22.08 В 3
{3}
н/о н/о -0.7 -0.9 99 -6 -6 1018.7 1017.1
00 23.08 В 2 н/о н/о -1.0 -1.1 99 -5 -5 1018.9 1017.3
01 23.08 В 2
{3}
н/о н/о -1.0 -1.1 99 -5 -5 1018.9 1017.3
02 23.08 В 2
{2}
н/о н/о -1.0 -1.1 99 -5 -5 1018.7 1017.1
03 23.08 В 1
{2}
н/о н/о -0.9 -1.0 99 -3 -3 1018.7 1017.1
04 23.08 В 1
{1}
н/о н/о -1.0 -1.1 99 -3 -3 1018.8 1017.2
05 23.08 СВ 1
{2}
н/о н/о -1.0 -1.1 99 -3 -3 1018.8 1017.2
06 23.08 В 1
{3}
н/о н/о -0.8 -0.9 99 -3 -3 1019.1 1017.5
07 23.08 В 1
{2}
н/о н/о -0.8 -0.9 99 -3 -3 1019.2 1017.6
08 23.08 В 2
{2}
н/о н/о -0.7 -0.8 99 -5 -5 1019.5 1017.9
09 23.08 В 1
{1}
н/о н/о -0.5 -0.7 99 -3 -3 1019.5 1017.9
10 23.08 В 1
{2}
н/о н/о -0.6 -0.8 99 -3 -3 1019.6 1018.0
11 23.08 В 1
{2}
н/о н/о -0.3 -0.5 99 -3 -3 1019.9 1018.4
12 23.08 СВ 2
{2}
н/о н/о -0.6 -0.8 99 -5 -5 1020.1 1018.5
13 23.08 СВ 1
{2}
н/о н/о -0.7 -0.9 99 -3 -3 1020.1 1018.5
14 23.08 СВ 1
{2}
н/о н/о -0.9 -1.1 99 -3 -3 1020.2 1018.6
15 23.08 СВ 1
{1}
н/о н/о -0.9 -1.1 99 -3 -3 1020.2 1018.6
16 23.08 СВ 2
{2}
н/о н/о -1.1 -1.3 99 -5 -5 1020.4 1018.8
17 23.08 СВ 2
{3}
н/о н/о -1.4 -1.8 97 -5 -5 1020.4 1018.8
18 23.08 СВ 1
{3}
н/о н/о -1.5 -1.9 97 -4 -4 1020.4 1018.8 -1.6 -0.3
19 23.08 СВ 1
{2}
н/о н/о -1.6 -2.0 97 -4 -4 1020.5 1018.9
20 23.08 СВ 1
{1}
н/о н/о -1.7 -2.1 97 -4 -4 1020.7 1019.1
21 23.08 штиль 0
{1}
н/о н/о -2.0 -2.5 96 -3 -3 1020.7 1019.1
23 23.08 штиль 0
{1}
н/о н/о -1.9 -2.4 96 -3 -3 1020.8 1019.2
01 24.08 ЮВ 1
{1}
н/о н/о -2.0 -2.6 96 -4 -4 1020.9 1019.3
02 24.08 ЮВ 1
{1}
н/о н/о -1.9 -2.4 96 -4 -4 1020.9 1019.3
03 24.08 ЮВ 1
{1}
н/о н/о -1.8 -2.5 95 -4 -4 1021.0 1019.4
04 24.08 ЮВ 1
{1}
н/о н/о -1.6 -2.5 94 -4 -4 1021.0 1019.4
05 24.08 штиль 0
{1}
н/о н/о -1.4 -2.3 94 -3 -3 1020.9 1019.3
06 24.08 штиль 0
{1}
н/о н/о -1.2 -1.9 95 -3 -3 1021.1 1019.5
07 24.08 штиль 0
{1}
н/о н/о -1.1 -1.6 96 -2 -2 1021.2 1019.6
08 24.08 ЮВ 1
{2}
н/о н/о -1.1 -1.6 96 -3 -3 1021.3 1019.7
09 24.08 В 1
{2}
н/о н/о -0.7 -1.2 96 -3 -3 1021.2 1019.6
10 24.08 штиль 0
{1}
н/о н/о 0.0 -0.7 95 -1 -1 1021.2 1019.6
11 24.08 СВ 1
{1}
н/о н/о 0.0 -0.7 95 -2 -2 1021.2 1019.6
12 24.08 В 1
{2}
н/о н/о +0.2 -0.9 92 -2 -2 1021.1 1019.5
13 24.08 ЮВ 2
{2}
н/о н/о +0.4 -1.2 89 -3 -3 1021.1 1019.5
14 24.08 В 2
{2}
н/о н/о +1.0 -1.9 81 -2 -2 1021.0 1019.4
15 24.08 ЮВ 2
{3}
н/о н/о +1.2 -1.8 80 -2 -2 1020.7 1019.1
16 24.08 ЮВ 4
{4}
н/о н/о +0.9 -1.3 85 -4 -4 1020.6 1019.0
18 24.08 ЮВ 3 н/о н/о -0.1 -0.6 96 -5 -5 1020.3 1018.7
19 24.08 ЮВ 2
{4}
н/о н/о +0.2 -0.2 97 -4 -4 1020.1 1018.5
20 24.08 Ю 1
{2}
н/о н/о +0.7 -0.4 92 -1 -1 1019.9 1018.3
21 24.08 В 1
{2}
н/о н/о +0.1 -0.5 96 -2 -2 1019.7 1018.2
22 24.08 ЮВ 1
{2}
н/о н/о +0.2 -0.4 96 -2 -2 1019.6 1018.0
23 24.08 ЮВ 1
{1}
н/о н/о +1.0 0.0 93 -1 -1 1019.5 1017.9
00 25.08 Ю 2
{4}
н/о н/о +1.1 +0.1 93 -2 -2 1019.3 1017.7
01 25.08 ЮЗ 2
{3}
н/о н/о +1.7 -0.2 87 -2 -2 1019.3 1017.7
02 25.08 Ю 3
{4}
н/о н/о +1.4 +0.1 91 -3 -3 1019.0 1017.4
03 25.08 Ю 2
{3}
н/о н/о +2.0 -0.1 86 -1 -1 1018.8 1017.2
04 25.08 Ю 3
{3}
н/о н/о +2.6 0.0 83 -1 -1 1018.7 1017.1
05 25.08 Ю 2
{3}
н/о н/о +3.0 +0.6 84 0 0 1018.7 1017.1
06 25.08 Ю 3
{4}
н/о н/о +3.4 +0.5 81 -0 -0 1018.5 1017.0 -0.1 +3.4
07 25.08 Ю 3
{4}
н/о н/о +3.7 +0.4 79 0 0 1018.6 1017.1
08 25.08 ЮВ 3
{4}
н/о н/о +2.9 +0.8 86 -1 -1 1018.5 1017.0
09 25.08 ЮВ 4
{5}
н/о н/о +2.9 +0.6 85 -2 -2 1018.4 1016.9
10 25.08 ЮВ 6
{6}
н/о н/о +1.7 +0.1 89 -5 -5 1018.4 1016.9
11 25.08 ЮВ 6
{7}
н/о н/о +1.7 +0.1 89 -5 -5 1018.5 1016.9
12 25.08 ЮВ 5
{7}
н/о н/о +1.9 +0.3 89 -4 -4 1018.5 1016.9

 

Местоположение метеостанции Эдж (Норвегия): широта 78.25 долгота 22.82 высота над уровнем моря 14 м.

В архиве по умолчанию представлена погода на Эдже за последнюю неделю. Архивные данные за месяц целиком и за предыдущие месяцы, начиная с января 2011 года, Вы можете получить, выбрав интересующий диапазон дат из раскрывающегося списка и нажав кнопку "Ввод!".


*Определитесь, кто Вы:
робот инопланетянин человек

Внимание! Время в таблицах - всемирное. Для получения местного времени необходимо прибавить поправку, которая равна 1 ч.

Смотрите также архив погоды в соседних городах и на ближайших метеорологических станциях:

Погода в Пирамиде (Норвегия) (151 км)
Погода на Конгсёйа (Норвегия) (153 км)
Погода в Свальбард аэропорту (Норвегия) (166 км)
Погода в Баренцбурге (Шпицберген, Россия) (196 км)
Погода на Акселойа (Норвегия) (197 км)
Погода в Хопене (Норвегия) (201 км)
Погода на Хорнсунне (Норвегия) (222 км)
Погода на Верлегенхукен (Норвегия) (243 км)
Погода на Сёркаппёйа (Норвегия) (249 км)
Погода в Ню-Олесунн (Норвегия) (251 км)

Пояснения к столбцам:

Ветер - указаны скорость ветра в м/с - средняя за 10 мин, порывы в срок и между сроками (в фигурных скобках) и направление, откуда дует ветер: С - северный, СВ - северо-восточный, В - восточный, ЮВ - юго-восточный, Ю - южный, ЮЗ - юго-западный, З - западный, СЗ - северо-западный.
Видимость - горизонтальная дальность видимости в метрах или километрах. При видимости от 1 до 10 км при отсутствии осадков обычно наблюдается дымка, при ухудшении видимости до 1 км и менее - туман. В сухую погоду видимость может ухудшаться дымом, пылью или мглою.
Явления - указаны атмосферные явления, наблюдавшиеся в срок или в последний час перед сроком; фигурными скобками обозначены явления, наблюдавшиеся между сроками (за 1-3 часа до срока); квадратными скобками обозначены град или гололедные отложения с указанием их диаметра в мм.
Облачность - указаны через наклонную черту общая и нижняя облачность в баллах и высота нижней границы облаков в метрах; квадратными скобками обозначены формы облаков: Ci - перистые, Cs - перисто-слоистые, Cc - перисто-кучевые, Ac - высококучевые, As - высокослоистые, Sc - слоисто-кучевые, Ns - слоисто-дождевые, Cu - кучевые, Cb - кучево-дождевые. Подробнее классификацию облаков см. в Атласе облаков (PDF).
T - Температура воздуха - температура, измеренная на высоте 2 м над землей.
Td - Температура точки росы - температура, при понижении до которой содержащийся в воздухе водяной пар достигнет насыщения.
f - Относительная влажность воздуха - влажноcть воздуха, измеренная на высоте 2 м над землей.
Te - Эффективная температура - температура, которую ощущает одетый по сезону человек в тени. Характеристика душности погоды. При расчете учитывается влияние влажности воздуха и скорости ветра на теплоощущения человека.
Tes - Эффективная температура на солнце - температура, которую ощущает человек, с поправкой на солнечный нагрев. Характеристика знойности погоды. Зависит от высоты солнца над горизонтом, облачности и скорости ветра. Ночью, в пасмурную погоду, а также при ветре 12 м/с и более поправка равна нулю.
P - Атмосферное давление - приведенное к уровню моря атмосферное давление.
Po - Атмосферное давление - измеренное на уровне метеостанции атмосферное давление.
Tmin - Минимальная температура - минимум температуры воздуха на высоте 2 м над землей.
Tmax - Максимальная температура - максимум температуры воздуха на высоте 2 м над землей.
R - Количество осадков - Количество выпавших осадков за период времени, мм. При наведении курсора мыши на число - период времени, за который выпало указанное количество осадков.
R24 - Количество осадков - Количество выпавших осадков за 24 часа, мм.
S - Снежный покров - Высота снежного покрова, см. При наведении курсора мыши на число - состояние снежного покрова и степень покрытия местности в баллах.